[[{"header":{"parameterUnit":"m.s-1","parameterCategory":2,"la1":30.2991,"la2":30.254,"lo1":-89.0895,"lo2":-89.0444,"dy":0.0017,"dx":0.0017,"nx":28,"ny":28,"refTime":"2023-06-26T21:00:00:Z","depth":"0","parameterNumber":2,"parameterNumberName":"U-component_of_CURRENTS"},"data":[0,0,0,0,0,0,0,0,0,0,0,0,0,0,0,0,0,0,0,0,0,0,0,0,0,0,0,0,0,0,0,0,0,0,0,0,0,0,0,0,0,0,0,0,0,0,0,0,0,0,0,0,0,0,0,0,0,0,0.2212,0.2213,0,0.2327,0.2328,0.2329,0.2338,0.2336,0.2335,0.2333,0.2531,0.2537,0.2544,0,0,0,0,0,0,0,0,0,0,0,0,0,0.2085,0.2087,0.2211,0.2213,0.2214,0.2326,0.2328,0.233,0.2338,0.2336,0.2334,0.2333,0.2529,0.2536,0.2544,0,0,0,0,0,0,0,0,0,0,0,0,0,0.2166,0.2087,0.2211,0.223,0.2233,0.2326,0.2328,0.233,0.2338,0.2336,0.2334,0.2332,0.2526,0.2536,0.2545,0.2651,0,0,0.2576,0.258,0,0,0,0,0,0,0,0,0.2161,0.217,0.2226,0.2229,0.2232,0.2314,0.2356,0.2441,0.2339,0.2301,0.2333,0.2331,0.2466,0.2481,0.2509,0.266,0.2668,0.2577,0.2583,0.2587,0.259,0,0,0,0,0,0,0,0.2155,0.2166,0.2259,0.2228,0.2231,0.2262,0.227,0.2372,0.2397,0.2304,0.2304,0.2314,0.2468,0.2499,0.2514,0.2671,0.2576,0.2585,0.2591,0.2595,0.2907,0.291,0,0,0,0,0,0,0.2135,0.2161,0.2255,0.2262,0.2188,0.2266,0.2275,0.2291,0.2395,0.2407,0.2316,0.2314,0.2484,0.2502,0.2521,0.2646,0.2587,0.2596,0.2602,0.2905,0.2908,0.291,0,0,0,0,0,0,0.2132,0.2143,0.2251,0.2212,0.2227,0.2269,0.2288,0.2295,0.2324,0.2403,0.2416,0.2337,0.2483,0.2507,0.2625,0.2653,0.2601,0.261,0.2902,0.2906,0.2909,0.29,0,0,0,0,0,0,0.2128,0.2141,0.2156,0.2211,0.2229,0.2306,0.229,0.2299,0.2333,0.2332,0.2427,0.2442,0.2483,0.261,0.2634,0.2666,0.2617,0.2899,0.2904,0.2908,0.2897,0.2903,0.2907,0,0,0,0,0,0.2123,0.2154,0.2157,0.2168,0.2245,0.2307,0.232,0.2344,0.2336,0.236,0.2429,0.2439,0.2653,0.2621,0.2649,0.2684,0.2897,0.2903,0.2908,0.2895,0.2902,0.2907,0,0,0,0,0,0,0.2116,0.216,0.2163,0.2207,0.225,0.2307,0.2338,0.2352,0.2426,0.2429,0.2491,0.2514,0.2621,0.2667,0.2629,0.2787,0.277,0.2781,0.2751,0.2758,0.2763,0.2734,0.2626,0,0,0,0,0,0.2119,0.2145,0.2194,0.2228,0.2251,0.2296,0.2326,0.2343,0.2408,0.2436,0.2496,0.2576,0.267,0.2721,0.2805,0.2912,0.2938,0.2948,0.2953,0.2956,0.2954,0.3024,0.3034,0.2928,0.2928,0.2928,0,0,0.2122,0.2152,0.2165,0.2227,0.2263,0.2309,0.231,0.236,0.2399,0.2454,0.2534,0.2605,0.2705,0.2809,0.286,0.2848,0.3003,0.2963,0.2965,0.2961,0.303,0.304,0.3049,0.2931,0.2931,0.293,0,0,0.2148,0.2172,0.2204,0.2241,0.2295,0.2327,0.2339,0.24,0.2428,0.2523,0.2568,0.2652,0.2791,0.2857,0.2914,0.3006,0.3028,0.3033,0.304,0.3108,0.3116,0.3124,0.3168,0.318,0.3033,0.3033,0.3033,0,0.2152,0.2196,0.2225,0.2269,0.2298,0.2332,0.2375,0.2423,0.251,0.2549,0.2543,0.2739,0.281,0.2946,0.2967,0.3014,0.305,0.3003,0.3111,0.3119,0.3127,0.317,0.3183,0.3033,0.3033,0.3033,0.3033,0,0.2203,0.2236,0.2262,0.2316,0.2356,0.2401,0.2456,0.2502,0.2533,0.2577,0.2697,0.2793,0.29,0.2938,0.2987,0.3091,0.3098,0.3105,0.3083,0.3136,0.318,0.3193,0.3034,0.3034,0.3033,0.3033,0,0,0.2218,0.2282,0.2291,0.2309,0.2381,0.2416,0.2488,0.2565,0.2606,0.2685,0.2752,0.2899,0.2926,0.2993,0.3059,0.3116,0.3199,0.3132,0.3136,0.3154,0.3341,0.3361,0.3377,0.3227,0.323,0.3232,0.3346,0,0.225,0.231,0.2346,0.2401,0.2432,0.248,0.2538,0.2608,0.2665,0.2737,0.2833,0.2924,0.2958,0.3006,0.3076,0.3179,0.3236,0.3167,0.3306,0.331,0.3303,0.3395,0.344,0.3548,0.336,0.3362,0.3363,0,0.2292,0.2321,0.2369,0.2422,0.2443,0.2479,0.2558,0.2618,0.2726,0.2771,0.2867,0.2935,0.3063,0.3058,0.3244,0.3201,0.327,0.3327,0.3333,0.3362,0.3356,0.3469,0.3579,0.3531,0.3384,0.3383,0.3381,0,0.2267,0.234,0.2365,0.2386,0.2455,0.2485,0.253,0.2623,0.267,0.2786,0.2825,0.2978,0.3051,0.317,0.3299,0.328,0.3476,0.3464,0.3543,0.3544,0.3615,0.3618,0.3678,0.3576,0.3576,0.3575,0.3575,0,0.2278,0.2298,0.2348,0.2357,0.239,0.2455,0.2503,0.2566,0.2658,0.2718,0.2832,0.2908,0.3081,0.3213,0.3317,0.3486,0.3498,0.3565,0.359,0.3614,0.3616,0.3602,0.3515,0.358,0.3579,0.3578,0.3577,0,0.223,0.2271,0.2289,0.2349,0.2368,0.2384,0.2458,0.2502,0.2588,0.2669,0.2704,0.2874,0.3058,0.3223,0.3424,0.3509,0.3623,0.3702,0.3708,0.3731,0.3749,0.3659,0.3624,0.36,0.3818,0.3819,0.382,0,0.22,0.2207,0.225,0.2257,0.2276,0.2315,0.2351,0.2448,0.2498,0.265,0.2692,0.288,0.3027,0.3334,0.3551,0.3764,0.3667,0.3881,0.3854,0.3776,0.3695,0.354,0.351,0.3946,0.3949,0.395,0.3952,0,0.213,0.2145,0.2153,0.2171,0.2197,0.2235,0.2295,0.2323,0.2452,0.2533,0.2665,0.279,0.3125,0.3393,0.3677,0.3818,0.3786,0.392,0.3863,0.3823,0.3638,0.3618,0.3811,0.3967,0.3966,0.3964,0.3964,0.3963,0.2051,0.2042,0.2059,0.2075,0.2107,0.215,0.2171,0.2258,0.2335,0.2461,0.2604,0.2798,0.3192,0.3627,0.3802,0.4066,0.3883,0.4037,0.3943,0.38,0.3746,0.3953,0.4114,0.4113,0.4113,0.4112,0.4112,0,0.1944,0.1963,0.1974,0.1994,0.2009,0.2062,0.2132,0.216,0.2239,0.2399,0.2529,0.2916,0.3274,0.3646,0.4011,0.405,0.4053,0.4009,0.3822,0.3802,0.4054,0.4033,0.4156,0.4156,0.4156,0.4156,0.4156,0.4156,0.1882,0.1866,0.1893,0.1893,0.192,0.1939,0.1972,0.2032,0.2134,0.2322,0.2523,0.2693,0.3079,0.3558,0.3848,0.3921,0.3787,0.3742,0.365,0.3848,0.3843,0.3838,0.3804,0.3877,0.3876,0.3429,0.3425,0.3423]},{"header":{"parameterUnit":"m.s-1","parameterCategory":2,"la1":30.2991,"la2":30.254,"lo1":-89.0895,"lo2":-89.0444,"dy":0.0017,"dx":0.0017,"nx":28,"ny":28,"refTime":"2023-06-26T21:00:00:Z","depth":"0","parameterNumber":3,"parameterNumberName":"V-component_of_CURRENTS"},"data":[0,0,0,0,0,0,0,0,0,0,0,0,0,0,0,0,0,0,0,0,0,0,0,0,0,0,0,0,0,0,0,0,0,0,0,0,0,0,0,0,0,0,0,0,0,0,0,0,0,0,0,0,0,0,0,0,0,0,0.0101,0.0101,0,0.012,0.012,0.0121,0.0091,0.0089,0.0088,0.0087,0.004,0.004,0.004,0,0,0,0,0,0,0,0,0,0,0,0,0,0.009,0.009,0.0101,0.0101,0.0101,0.012,0.012,0.0121,0.0091,0.0089,0.0088,0.0087,0.004,0.004,0.004,0,0,0,0,0,0,0,0,0,0,0,0,0,0.0101,0.0091,0.0101,0.0089,0.0088,0.012,0.012,0.0121,0.0091,0.0089,0.0088,0.0086,0.004,0.004,0.004,0.0068,0,0,0.0038,0.0038,0,0,0,0,0,0,0,0,0.01,0.0101,0.009,0.009,0.0089,0.0101,0.0099,0.01,0.0091,0.009,0.0087,0.0086,0.0056,0.0054,0.0062,0.0066,0.0064,0.0038,0.0038,0.0038,0.0038,0,0,0,0,0,0,0,0.0099,0.01,0.0108,0.0091,0.009,0.01,0.01,0.01,0.008,0.009,0.0088,0.009,0.0055,0.0063,0.006,0.0063,0.0038,0.0038,0.0038,0.0037,0.0039,0.0039,0,0,0,0,0,0,0.0096,0.01,0.0108,0.0109,0.0091,0.0101,0.0101,0.0099,0.0081,0.0078,0.0092,0.0089,0.0064,0.0061,0.0059,0.0056,0.0038,0.0037,0.0037,0.0038,0.0039,0.0039,0,0,0,0,0,0,0.0096,0.0097,0.0107,0.0105,0.0107,0.0103,0.0101,0.01,0.0105,0.0084,0.0078,0.0098,0.0063,0.0059,0.006,0.0055,0.0037,0.0037,0.0038,0.0038,0.0039,0.0074,0,0,0,0,0,0,0.0095,0.0096,0.0101,0.0105,0.0107,0.0131,0.0103,0.0102,0.011,0.0106,0.0087,0.0082,0.0061,0.0061,0.0059,0.0054,0.0037,0.0038,0.0038,0.0039,0.0072,0.0075,0.0078,0,0,0,0,0,0.0095,0.011,0.0101,0.0103,0.0111,0.0132,0.0135,0.0127,0.0111,0.0124,0.0107,0.0082,0.0062,0.0062,0.006,0.0054,0.0037,0.0038,0.0039,0.0071,0.0075,0.0078,0,0,0,0,0,0,0.0106,0.0109,0.0099,0.0112,0.0122,0.0127,0.0142,0.0135,0.0134,0.0124,0.0099,0.0093,0.0088,0.0073,0.0073,0.0055,0.0041,0.0041,0.0066,0.0069,0.0072,0.0077,0.0036,0,0,0,0,0,0.0112,0.0123,0.0126,0.0137,0.0144,0.0144,0.0153,0.0145,0.0143,0.0141,0.0131,0.011,0.0092,0.0083,0.0072,0.0075,0.0056,0.0065,0.0068,0.0071,0.0074,0.0044,0.0044,0.0041,0.0041,0.0041,0,0,0.0117,0.0122,0.0126,0.0141,0.0147,0.0163,0.0146,0.016,0.0165,0.0137,0.0146,0.0127,0.0097,0.0091,0.0086,0.0076,0.0064,0.0072,0.0074,0.0075,0.0045,0.0045,0.0045,0.0041,0.0041,0.0041,0,0,0.0139,0.014,0.0157,0.017,0.0183,0.0184,0.0189,0.0198,0.0192,0.0202,0.0172,0.0155,0.0146,0.0117,0.01,0.0116,0.0084,0.0107,0.0122,0.0094,0.0094,0.0093,0.008,0.0078,0.0104,0.0104,0.0104,0,0.0146,0.0164,0.0167,0.019,0.0202,0.0193,0.0213,0.0214,0.0219,0.0216,0.0206,0.0178,0.0154,0.0128,0.0127,0.0121,0.0106,0.0111,0.0097,0.0096,0.0096,0.0082,0.0079,0.0106,0.0106,0.0106,0.0105,0,0.0176,0.0195,0.0211,0.023,0.0245,0.0264,0.0262,0.027,0.0261,0.0253,0.024,0.0213,0.0191,0.0176,0.0155,0.0132,0.0125,0.0108,0.0089,0.0098,0.0083,0.008,0.0108,0.0108,0.0107,0.0107,0,0,0.0179,0.0223,0.0228,0.0246,0.0266,0.0281,0.029,0.0296,0.0297,0.0288,0.0289,0.0249,0.0231,0.0211,0.0179,0.0151,0.0131,0.0128,0.0126,0.0117,0.0079,0.0054,0.0048,0.0109,0.0109,0.0108,0.0075,0,0.0201,0.0251,0.0263,0.0303,0.0328,0.0327,0.034,0.0338,0.033,0.0332,0.0288,0.0278,0.0243,0.0232,0.0198,0.0153,0.0122,0.0142,0.0071,0.0069,0.0046,0.0043,0.0081,0.0053,0.0072,0.0071,0.0071,0,0.0226,0.0257,0.0302,0.0343,0.0352,0.0369,0.0383,0.0392,0.0381,0.0373,0.0349,0.0324,0.0286,0.0254,0.0178,0.0193,0.0139,0.0099,0.0096,0.0058,0.0037,0.0044,0.0046,0.0037,0.0065,0.0066,0.0066,0,0.0232,0.0284,0.0321,0.0336,0.0377,0.0388,0.0402,0.0402,0.041,0.0397,0.0402,0.0354,0.0337,0.0265,0.0189,0.0181,0.0108,0.0084,0.001,0.0009,0.0019,0.0018,0.0003,0.0021,0.0021,0.0021,0.0021,0,0.0256,0.0286,0.0327,0.0349,0.0383,0.0404,0.0427,0.0432,0.0441,0.0455,0.0423,0.0424,0.0337,0.0289,0.0208,0.0108,0.012,0.0014,-0.0006,0.0033,0.0034,0.0008,-0.0028,0.002,0.002,0.002,0.0021,0,0.0263,0.0294,0.0336,0.0379,0.0391,0.0413,0.0447,0.0464,0.0473,0.0492,0.0492,0.0474,0.042,0.0333,0.0225,0.0135,-0.0024,-0.0003,0.0057,0.0044,-0.0049,-0.0085,-0.0353,-0.0401,-0.0093,-0.0094,-0.0095,0,0.0275,0.0299,0.0348,0.0369,0.0389,0.0422,0.0445,0.047,0.049,0.0522,0.0535,0.0506,0.0495,0.0344,0.0195,0.0057,-0.0048,-0.0027,-0.0051,-0.0049,-0.0104,-0.0293,-0.0325,-0.0014,-0.0015,-0.0015,-0.0015,0,0.0291,0.0305,0.0337,0.0376,0.0407,0.0446,0.0484,0.051,0.0545,0.0576,0.0613,0.0617,0.0494,0.0404,0.0217,0.0091,-0.0104,-0.0035,-0.0047,-0.006,-0.0254,-0.0307,0.0014,-0.0015,-0.0015,-0.0015,-0.0015,-0.0015,0.0294,0.0313,0.035,0.0387,0.0427,0.0479,0.0515,0.0565,0.0621,0.0707,0.0697,0.0762,0.0645,0.0407,0.0213,-0.0023,-0.0145,-0.0078,-0.0125,-0.032,-0.037,-0.0052,-0.01,-0.0101,-0.0101,-0.0101,-0.0102,0,0.0298,0.0323,0.0359,0.0414,0.0463,0.0483,0.0549,0.0605,0.0686,0.0793,0.0857,0.0934,0.0757,0.054,0.0245,0.0005,-0.0225,-0.0132,-0.0325,-0.0352,-0.0036,-0.0026,-0.0043,-0.0043,-0.0043,-0.0043,-0.0043,-0.0043,0.0306,0.0336,0.0357,0.0437,0.048,0.0551,0.0596,0.0692,0.0787,0.0979,0.1117,0.1214,0.1211,0.0606,0.0192,0.002,-0.0236,-0.0411,-0.0496,-0.0151,-0.0148,-0.0145,-0.0139,-0.0181,-0.0181,-0.0823,-0.0828,-0.0831]}],[{"header":{"parameterUnit":"m.s-1","parameterCategory":2,"la1":30.2991,"la2":30.254,"lo1":-89.0895,"lo2":-89.0444,"dy":0.0017,"dx":0.0017,"nx":28,"ny":28,"refTime":"2023-06-26T21:00:00:Z","depth":"2","parameterNumber":2,"parameterNumberName":"U-component_of_CURRENTS"},"data":[0,0,0,0,0,0,0,0,0,0,0,0,0,0,0,0,0,0,0,0,0,0,0,0,0,0,0,0,0,0,0,0,0,0,0,0,0,0,0,0,0,0,0,0,0,0,0,0,0,0,0,0,0,0,0,0,0,0,-0.0599,-0.0599,0,-0.0627,-0.0628,-0.0629,-0.063,-0.0629,-0.0629,-0.0628,-0.0691,-0.0693,-0.0695,0,0,0,0,0,0,0,0,0,0,0,0,0,-0.059,-0.059,-0.0599,-0.0599,-0.0599,-0.0627,-0.0628,-0.0629,-0.063,-0.0629,-0.0629,-0.0628,-0.069,-0.0693,-0.0695,0,0,0,0,0,0,0,0,0,0,0,0,0,-0.0606,-0.059,-0.0599,-0.0601,-0.0601,-0.0627,-0.0628,-0.0629,-0.063,-0.0629,-0.0628,-0.0628,-0.0689,-0.0692,-0.0696,-0.0735,0,0,-0.0706,-0.0707,0,0,0,0,0,0,0,0,-0.0605,-0.0607,-0.0601,-0.0601,-0.0601,-0.0621,-0.0647,-0.0665,-0.063,-0.0623,-0.0628,-0.0627,-0.0669,-0.0674,-0.0686,-0.0738,-0.074,-0.0706,-0.0708,-0.071,-0.0711,0,0,0,0,0,0,0,-0.0604,-0.0606,-0.0613,-0.0601,-0.0601,-0.0615,-0.0616,-0.0651,-0.0654,-0.0623,-0.0623,-0.0621,-0.067,-0.0682,-0.0687,-0.0741,-0.0706,-0.0709,-0.0711,-0.0712,-0.0763,-0.0762,0,0,0,0,0,0,-0.0593,-0.0605,-0.0612,-0.0614,-0.0598,-0.0616,-0.0617,-0.0618,-0.0653,-0.0656,-0.0622,-0.0621,-0.0677,-0.0683,-0.0689,-0.0644,-0.071,-0.0713,-0.0715,-0.0763,-0.0763,-0.0762,0,0,0,0,0,0,-0.0593,-0.0594,-0.0611,-0.0607,-0.061,-0.0616,-0.0618,-0.0619,-0.0583,-0.0651,-0.0655,-0.0577,-0.0677,-0.0685,-0.0685,-0.065,-0.0714,-0.0717,-0.0764,-0.0763,-0.0762,-0.0613,0,0,0,0,0,0,-0.0593,-0.0594,-0.0576,-0.0607,-0.061,-0.0593,-0.0618,-0.0621,-0.0585,-0.0583,-0.0615,-0.0623,-0.0676,-0.068,-0.0689,-0.0656,-0.072,-0.0765,-0.0764,-0.0762,-0.0619,-0.0607,-0.0597,0,0,0,0,0,-0.0592,-0.0565,-0.0575,-0.0575,-0.0591,-0.0591,-0.0593,-0.0598,-0.0583,-0.0561,-0.0584,-0.0619,-0.0679,-0.0682,-0.0692,-0.0659,-0.0766,-0.0764,-0.0763,-0.0624,-0.061,-0.0597,0,0,0,0,0,0,-0.0542,-0.0564,-0.0575,-0.0553,-0.0559,-0.0589,-0.0558,-0.0563,-0.0563,-0.0544,-0.0607,-0.0617,-0.0606,-0.0657,-0.0659,-0.0674,-0.073,-0.073,-0.0621,-0.0608,-0.0597,-0.058,-0.0723,0,0,0,0,0,-0.0527,-0.0515,-0.054,-0.0517,-0.0508,-0.0523,-0.0515,-0.0516,-0.0528,-0.0523,-0.0542,-0.0576,-0.0619,-0.0627,-0.0667,-0.0669,-0.069,-0.0659,-0.0648,-0.0638,-0.0633,-0.0661,-0.0651,-0.0757,-0.0757,-0.0757,0,0,-0.0502,-0.051,-0.0502,-0.0506,-0.0502,-0.0494,-0.0514,-0.0477,-0.0472,-0.0533,-0.05,-0.0529,-0.061,-0.0615,-0.0616,-0.0645,-0.0605,-0.0636,-0.0626,-0.0628,-0.0658,-0.0648,-0.0639,-0.0756,-0.0756,-0.0756,0,0,-0.0446,-0.0444,-0.0415,-0.0417,-0.0402,-0.0425,-0.04,-0.0396,-0.0387,-0.0374,-0.0422,-0.0428,-0.0468,-0.0526,-0.0566,-0.0522,-0.0545,-0.052,-0.0449,-0.0475,-0.0466,-0.0458,-0.0402,-0.0391,-0.0516,-0.0516,-0.0516,0,-0.0404,-0.0388,-0.0403,-0.0378,-0.037,-0.0385,-0.0353,-0.0364,-0.0359,-0.0351,-0.034,-0.0391,-0.0439,-0.0486,-0.0463,-0.0496,-0.0479,-0.0485,-0.0457,-0.0451,-0.0446,-0.0391,-0.0381,-0.0508,-0.0509,-0.051,-0.0511,0,-0.0351,-0.0324,-0.0295,-0.0288,-0.0284,-0.0247,-0.0273,-0.0246,-0.0228,-0.0246,-0.0234,-0.0291,-0.0317,-0.0336,-0.0382,-0.0375,-0.0357,-0.0433,-0.0481,-0.0426,-0.0371,-0.0363,-0.0498,-0.0501,-0.0503,-0.0505,0,0,-0.0269,-0.0261,-0.0243,-0.0224,-0.0225,-0.0212,-0.0199,-0.0199,-0.0171,-0.0167,-0.0138,-0.0196,-0.0184,-0.023,-0.0277,-0.0302,-0.0223,-0.0324,-0.0329,-0.0247,-0.0194,-0.0001,0.0026,-0.0278,-0.0278,-0.0278,-0.0142,0,-0.0206,-0.0154,-0.0175,-0.0118,-0.0086,-0.011,-0.0103,-0.0107,-0.0101,-0.0077,-0.0131,-0.0113,-0.0163,-0.013,-0.0166,-0.0229,-0.0206,-0.0248,-0.0278,-0.0277,-0.0099,0.0039,-0.0168,-0.0049,-0.0135,-0.0134,-0.0133,0,-0.0135,-0.011,-0.0042,-0.0027,-0.0012,0.0023,0.0052,0.0053,0.0041,0.0055,0.0058,0.0028,0.0011,-0.0035,-0.0082,-0.0092,-0.0104,-0.0153,-0.0151,-0.0025,-0.0071,-0.0136,-0.0032,-0.012,-0.0121,-0.0122,-0.0123,0,-0.0056,-0.0014,0.0045,0.0055,0.0067,0.0122,0.0137,0.0134,0.0144,0.0179,0.0216,0.0164,0.0195,0.0117,0.0071,0.001,0.0035,-0.0085,0.0082,0.0097,-0.0113,-0.0115,-0.0087,-0.0087,-0.0087,-0.0088,-0.0088,0,0.0014,0.0076,0.0113,0.0158,0.0237,0.023,0.031,0.0317,0.0331,0.036,0.0329,0.0365,0.024,0.0233,0.0142,0.0199,0.0107,0.0154,0.0153,-0.0054,-0.0053,-0.018,-0.0193,-0.0083,-0.0084,-0.0085,-0.0086,0,0.0101,0.0122,0.02,0.0257,0.0291,0.0364,0.0417,0.0436,0.0488,0.0535,0.0567,0.0551,0.0595,0.0498,0.0413,0.0361,0.0327,0.037,0.0208,0.0191,0.0388,0.038,0.0562,0.057,0.0577,0.0582,0.0587,0,0.0154,0.0202,0.0283,0.032,0.0375,0.0465,0.0494,0.0531,0.0549,0.0645,0.0663,0.0769,0.0815,0.0832,0.073,0.0694,0.0598,0.0535,0.0374,0.0479,0.0457,0.0439,0.0423,0.015,0.0151,0.0152,0.0152,0,0.0228,0.0262,0.0285,0.037,0.0442,0.0486,0.0562,0.0604,0.0648,0.073,0.0851,0.0926,0.1001,0.09,0.0925,0.0823,0.0519,0.0566,0.0656,0.0075,0.0117,0.0088,0.0079,0.0158,0.0158,0.0157,0.0157,0.0157,0.0261,0.0273,0.0294,0.0378,0.0431,0.0499,0.0562,0.0613,0.07,0.0761,0.0852,0.0892,0.078,0.0762,0.0755,0.0758,0.0777,0.0573,0.0556,0.0542,0.0527,0.0585,0.0715,0.0717,0.0719,0.0721,0.0723,0,0.0297,0.0277,0.0292,0.0364,0.0411,0.0486,0.0563,0.0569,0.0684,0.0721,0.079,0.0576,0.0525,0.054,0.0576,0.0619,0.0446,0.0558,0.0237,0.0231,0.0226,0.0182,0.0284,0.0284,0.0285,0.0285,0,0,0.0297,0.0284,0.0268,0.0328,0.0407,0.0482,0.0552,0.0549,0.056,0.0566,0.0559,0.0369,0.0454,0.0285,0.0272,0.0352,0.0288,0.0318,0.0642,0.0253,0.0249,0.0187,0.0113,0,0,0,0,0]},{"header":{"parameterUnit":"m.s-1","parameterCategory":2,"la1":30.2991,"la2":30.254,"lo1":-89.0895,"lo2":-89.0444,"dy":0.0017,"dx":0.0017,"nx":28,"ny":28,"refTime":"2023-06-26T21:00:00:Z","depth":"2","parameterNumber":3,"parameterNumberName":"V-component_of_CURRENTS"},"data":[0,0,0,0,0,0,0,0,0,0,0,0,0,0,0,0,0,0,0,0,0,0,0,0,0,0,0,0,0,0,0,0,0,0,0,0,0,0,0,0,0,0,0,0,0,0,0,0,0,0,0,0,0,0,0,0,0,0,0.0122,0.0122,0,0.0098,0.0098,0.0097,0.0054,0.0053,0.0052,0.0051,0.0012,0.0012,0.0012,0,0,0,0,0,0,0,0,0,0,0,0,0,0.0164,0.0163,0.0122,0.0122,0.0121,0.0098,0.0098,0.0097,0.0054,0.0053,0.0052,0.005,0.0012,0.0012,0.0012,0,0,0,0,0,0,0,0,0,0,0,0,0,0.0146,0.0163,0.0122,0.0094,0.0091,0.0098,0.0098,0.0097,0.0055,0.0053,0.0051,0.005,0.0012,0.0012,0.0012,0.0045,0,0,0.0012,0.0012,0,0,0,0,0,0,0,0,0.0147,0.0145,0.0099,0.0096,0.0093,0.0074,0.0097,0.0078,0.0055,0.0072,0.0051,0.0049,0.003,0.0029,0.0033,0.0043,0.0041,0.0012,0.0012,0.0012,0.0012,0,0,0,0,0,0,0,0.0148,0.0146,0.0116,0.0099,0.0095,0.0094,0.0089,0.0094,0.0063,0.007,0.0066,0.0059,0.0029,0.0033,0.0031,0.0041,0.0012,0.0012,0.0012,0.0012,0.0039,0.004,0,0,0,0,0,0,0.0145,0.0147,0.0116,0.0115,0.0113,0.0094,0.0089,0.0085,0.0063,0.0058,0.0061,0.0057,0.0034,0.0031,0.003,0.0019,0.0012,0.0012,0.0012,0.0039,0.004,0.004,0,0,0,0,0,0,0.0146,0.0143,0.0117,0.0128,0.0124,0.0094,0.009,0.0085,0.0076,0.0055,0.005,0.0054,0.0032,0.003,0.0019,0.0018,0.0012,0.0012,0.0038,0.0039,0.004,0.0028,0,0,0,0,0,0,0.0148,0.0144,0.0148,0.0127,0.0123,0.0118,0.0091,0.0086,0.0073,0.0068,0.0049,0.0044,0.0031,0.0019,0.0019,0.0018,0.0011,0.0037,0.0038,0.004,0.0027,0.0028,0.0029,0,0,0,0,0,0.0149,0.0161,0.0148,0.0145,0.0127,0.0118,0.0116,0.0092,0.0074,0.0077,0.0055,0.0044,0.0028,0.002,0.002,0.0018,0.0036,0.0038,0.004,0.0027,0.0028,0.0029,0,0,0,0,0,0,0.0185,0.0157,0.0142,0.0146,0.0129,0.0109,0.0111,0.0093,0.0081,0.0077,0.005,0.0045,0.0035,0.0038,0.0029,0.0034,0.0033,0.0034,0.0023,0.0025,0.0026,0.0019,0.0011,0,0,0,0,0,0.0194,0.0195,0.0165,0.0171,0.016,0.0136,0.0131,0.0117,0.0099,0.0092,0.0064,0.0053,0.0048,0.0042,0.0039,0.0044,0.0035,0.0047,0.0048,0.0048,0.0045,0.0037,0.0037,0.0046,0.0046,0.0046,0,0,0.0211,0.0197,0.0197,0.0179,0.0165,0.0158,0.013,0.0126,0.0118,0.0092,0.0068,0.0053,0.0051,0.0047,0.0045,0.0044,0.004,0.0051,0.0051,0.0047,0.0039,0.0038,0.0037,0.0047,0.0047,0.0047,0,0,0.0248,0.0229,0.0239,0.0225,0.0205,0.0185,0.0181,0.015,0.013,0.0116,0.0091,0.0075,0.0063,0.0054,0.0053,0.0066,0.0045,0.0066,0.0063,0.0055,0.0054,0.0053,0.0029,0.0026,0.0067,0.0067,0.0067,0,0.0267,0.027,0.0243,0.0246,0.0232,0.0194,0.0195,0.0178,0.0145,0.0126,0.0108,0.0076,0.007,0.0064,0.006,0.0067,0.0049,0.0053,0.0054,0.0053,0.0052,0.0028,0.0025,0.0067,0.0067,0.0067,0.0067,0,0.0303,0.0304,0.0307,0.0289,0.0276,0.0274,0.0235,0.0213,0.0177,0.015,0.012,0.0102,0.0079,0.0078,0.0069,0.0059,0.0044,0.0052,0.0044,0.0049,0.0025,0.0021,0.0066,0.0066,0.0066,0.0067,0,0,0.034,0.0333,0.0333,0.0329,0.0295,0.0288,0.0267,0.0231,0.021,0.017,0.0136,0.0121,0.0089,0.0087,0.0071,0.006,0.0032,0.0045,0.0045,0.001,-0.0008,0.0016,0.0014,0.0031,0.003,0.003,-0.0026,0,0.0368,0.0387,0.037,0.0374,0.0368,0.0324,0.0306,0.0272,0.0227,0.0182,0.0149,0.0121,0.0101,0.0085,0.0067,0.0034,0.0023,0.0045,0.0004,0.0002,0.0013,0.0012,0.0051,0.0008,-0.0029,-0.003,-0.0031,0,0.0396,0.0403,0.0415,0.0401,0.0393,0.0388,0.0337,0.0322,0.0258,0.0221,0.0174,0.0132,0.0089,0.0085,0.0025,0.0032,0.0013,-0.0005,-0.0008,0.0017,0.002,0.0002,0.0003,-0.0037,-0.0036,-0.0036,-0.0035,0,0.042,0.0427,0.0436,0.043,0.0409,0.0401,0.0387,0.0332,0.0315,0.0244,0.0215,0.0146,0.0113,0.0071,0.0005,0.0013,-0.0062,-0.0045,-0.0038,-0.0037,-0.0009,-0.0004,-0.0063,-0.0063,-0.0062,-0.0062,-0.0062,0,0.0444,0.045,0.045,0.0453,0.046,0.0434,0.0426,0.0394,0.0349,0.033,0.0242,0.0211,0.0108,0.0041,-0.0003,-0.005,-0.0067,-0.0043,-0.0046,-0.0011,-0.0006,-0.0043,-0.004,-0.0064,-0.0064,-0.0063,-0.0063,0,0.0466,0.0464,0.0475,0.0471,0.0472,0.0478,0.0472,0.0466,0.0413,0.0382,0.0361,0.0249,0.0161,0.0056,-0.0025,-0.0047,-0.0094,-0.0095,-0.0061,-0.0057,-0.0063,-0.006,-0.0088,-0.0087,-0.0087,-0.0087,-0.0086,0,0.0478,0.0484,0.0499,0.0515,0.0515,0.0525,0.0534,0.0502,0.0493,0.0416,0.0406,0.0298,0.0269,0.0129,0.0048,-0.0028,-0.0089,-0.0063,-0.0016,-0.0063,-0.0064,-0.0061,-0.0059,0.0005,0.0006,0.0007,0.0007,0,0.0495,0.0497,0.052,0.0555,0.0574,0.06,0.0609,0.0609,0.0565,0.0566,0.0542,0.0526,0.0379,0.0279,0.0131,0.0103,-0.0052,-0.0045,-0.0113,0.0017,0.0023,0.0023,0.0023,0.0015,0.0014,0.0014,0.0013,0.0013,0.0506,0.0535,0.0563,0.0597,0.0632,0.0669,0.0712,0.0727,0.0761,0.0763,0.0703,0.0641,0.0376,0.0218,0.0134,0.0058,0.0088,0.0016,0.0013,0.001,0.0042,0.0051,0.0051,0.0051,0.0051,0.005,0.005,0,0.0508,0.0544,0.0599,0.066,0.0724,0.0713,0.0762,0.0824,0.091,0.0862,0.0902,0.0566,0.0466,0.02,0.0148,0.011,0.0133,0.0038,0.0038,0.0034,0.003,0.0062,0.0076,0.0075,0.0075,0.0074,0,0,0.0516,0.0558,0.0604,0.0722,0.077,0.087,0.0909,0.1004,0.1002,0.0951,0.0826,0.0724,0.0384,0.0233,0.0156,0.0144,0.0132,0.0163,0.0164,0.0182,0.0178,0.0049,0.0099,0,0,0,0,0]}],[{"header":{"parameterUnit":"m.s-1","parameterCategory":2,"la1":30.2991,"la2":30.254,"lo1":-89.0895,"lo2":-89.0444,"dy":0.0017,"dx":0.0017,"nx":28,"ny":28,"refTime":"2023-06-26T21:00:00:Z","depth":"4","parameterNumber":2,"parameterNumberName":"U-component_of_CURRENTS"},"data":[0,0,0,0,0,0,0,0,0,0,0,0,0,0,0,0,0,0,0,0,0,0,0,0,0,0,0,0,0,0,0,0,0,0,0,0,0,0,0,0,0,0,0,0,0,0,0,0,0,0,0,0,0,0,0,0,0,0,-0.0349,-0.035,0,-0.0389,-0.0389,-0.039,-0.0421,-0.0421,-0.0422,-0.0423,-0.0572,-0.0575,-0.0579,0,0,0,0,0,0,0,0,0,0,0,0,0,-0.0312,-0.0312,-0.0349,-0.035,-0.0351,-0.0389,-0.0389,-0.039,-0.042,-0.0421,-0.0422,-0.0423,-0.0571,-0.0575,-0.0579,0,0,0,0,0,0,0,0,0,0,0,0,0,-0.0334,-0.0312,-0.0349,-0.0374,-0.0377,-0.0389,-0.0389,-0.039,-0.042,-0.0421,-0.0422,-0.0423,-0.057,-0.0575,-0.058,-0.059,0,0,-0.0595,-0.0597,0,0,0,0,0,0,0,0,-0.0333,-0.0335,-0.0369,-0.0372,-0.0376,-0.0405,-0.0432,-0.0464,-0.042,-0.0399,-0.0423,-0.0424,-0.0528,-0.0537,-0.0534,-0.0597,-0.0603,-0.0595,-0.0598,-0.0601,-0.0602,0,0,0,0,0,0,0,-0.0331,-0.0333,-0.0361,-0.037,-0.0374,-0.0388,-0.0392,-0.0437,-0.0456,-0.0401,-0.0405,-0.0416,-0.053,-0.0529,-0.0539,-0.0606,-0.0595,-0.06,-0.0603,-0.0605,-0.0785,-0.0787,0,0,0,0,0,0,-0.0333,-0.0332,-0.0359,-0.0362,-0.0361,-0.0388,-0.0392,-0.0391,-0.0454,-0.0464,-0.0415,-0.0417,-0.052,-0.0533,-0.0544,-0.0689,-0.0601,-0.0605,-0.0608,-0.0784,-0.0786,-0.0788,0,0,0,0,0,0,-0.0331,-0.0334,-0.0358,-0.0352,-0.0357,-0.0388,-0.0386,-0.0391,-0.0423,-0.0463,-0.0476,-0.0446,-0.0522,-0.0537,-0.0613,-0.069,-0.0607,-0.0612,-0.0781,-0.0784,-0.0787,-0.0896,0,0,0,0,0,0,-0.033,-0.0333,-0.0331,-0.0352,-0.0357,-0.0363,-0.0386,-0.0391,-0.0429,-0.0433,-0.0494,-0.0507,-0.0524,-0.0605,-0.0617,-0.0696,-0.0616,-0.0779,-0.0783,-0.0786,-0.089,-0.0902,-0.0912,0,0,0,0,0,-0.0328,-0.0321,-0.033,-0.0334,-0.0353,-0.0363,-0.0366,-0.039,-0.043,-0.0427,-0.0491,-0.0507,-0.0635,-0.061,-0.0625,-0.0706,-0.0778,-0.0782,-0.0786,-0.0885,-0.09,-0.0912,0,0,0,0,0,0,-0.0305,-0.0324,-0.0335,-0.0334,-0.0348,-0.037,-0.0377,-0.0409,-0.0455,-0.0482,-0.0528,-0.0544,-0.0639,-0.0646,-0.0617,-0.0763,-0.071,-0.0717,-0.0781,-0.0795,-0.0806,-0.0774,-0.062,0,0,0,0,0,-0.0298,-0.03,-0.0319,-0.0321,-0.0329,-0.0363,-0.0376,-0.04,-0.0445,-0.0467,-0.0535,-0.06,-0.0659,-0.0705,-0.0745,-0.0828,-0.0796,-0.0887,-0.0898,-0.0908,-0.0889,-0.0947,-0.0963,-0.0801,-0.0801,-0.0801,0,0,-0.0294,-0.0304,-0.0308,-0.0317,-0.0334,-0.035,-0.0372,-0.0402,-0.0428,-0.048,-0.0566,-0.0641,-0.0684,-0.0776,-0.0821,-0.0802,-0.0925,-0.0913,-0.0921,-0.0897,-0.0953,-0.0969,-0.0983,-0.0804,-0.0803,-0.0803,0,0,-0.0288,-0.0294,-0.0294,-0.0303,-0.0332,-0.0355,-0.0374,-0.0431,-0.046,-0.0545,-0.06,-0.0702,-0.0808,-0.0852,-0.0885,-0.0973,-0.0976,-0.1027,-0.1077,-0.1136,-0.115,-0.1162,-0.109,-0.1095,-0.1043,-0.1043,-0.1044,0,-0.0282,-0.0285,-0.0296,-0.0299,-0.0319,-0.0366,-0.0385,-0.0407,-0.0496,-0.0534,-0.0581,-0.0769,-0.0826,-0.0921,-0.0983,-0.0999,-0.1009,-0.1031,-0.1152,-0.1163,-0.1173,-0.1098,-0.1102,-0.1049,-0.1049,-0.1048,-0.1047,0,-0.0273,-0.0281,-0.0285,-0.0308,-0.0327,-0.0349,-0.0389,-0.0438,-0.0522,-0.0572,-0.0702,-0.0799,-0.092,-0.0975,-0.1026,-0.115,-0.112,-0.1154,-0.112,-0.1197,-0.111,-0.1113,-0.1057,-0.1055,-0.1054,-0.1052,0,0,-0.026,-0.0274,-0.028,-0.0289,-0.0339,-0.0354,-0.04,-0.0451,-0.0495,-0.062,-0.0702,-0.0861,-0.0968,-0.1011,-0.1108,-0.1181,-0.1272,-0.1241,-0.1242,-0.1168,-0.1346,-0.1142,-0.1123,-0.1383,-0.1386,-0.1388,-0.1237,0,-0.0257,-0.0255,-0.0278,-0.0307,-0.0318,-0.0367,-0.041,-0.0468,-0.0539,-0.0629,-0.074,-0.0878,-0.0961,-0.1094,-0.1176,-0.1273,-0.1295,-0.1304,-0.1281,-0.1276,-0.1089,-0.1126,-0.1395,-0.1238,-0.1239,-0.1239,-0.1239,0,-0.0254,-0.0253,-0.0271,-0.0311,-0.0324,-0.0368,-0.0444,-0.0493,-0.059,-0.0668,-0.0808,-0.0907,-0.1067,-0.1133,-0.1263,-0.1296,-0.1328,-0.1356,-0.1352,-0.1122,-0.1078,-0.1158,-0.1242,-0.1242,-0.1242,-0.1241,-0.1241,0,-0.0243,-0.0258,-0.0275,-0.0284,-0.0336,-0.0381,-0.0447,-0.0531,-0.058,-0.0738,-0.0811,-0.0968,-0.1089,-0.1188,-0.1222,-0.1325,-0.1262,-0.1395,-0.1177,-0.1157,-0.1338,-0.1327,-0.1426,-0.1426,-0.1426,-0.1427,-0.1427,0,-0.0234,-0.0247,-0.0278,-0.0285,-0.0332,-0.0401,-0.0473,-0.0552,-0.067,-0.072,-0.0882,-0.0901,-0.114,-0.1114,-0.1178,-0.1108,-0.1212,-0.1152,-0.1125,-0.1376,-0.1373,-0.1334,-0.1326,-0.1421,-0.1422,-0.1423,-0.1424,0,-0.0227,-0.0237,-0.0256,-0.0308,-0.0331,-0.0391,-0.0498,-0.0532,-0.0679,-0.0748,-0.0831,-0.0908,-0.0914,-0.0942,-0.1015,-0.1012,-0.0981,-0.0895,-0.1003,-0.0988,-0.0862,-0.0861,-0.0767,-0.0758,-0.0752,-0.0746,-0.0741,0,-0.0221,-0.0229,-0.0267,-0.0275,-0.031,-0.0386,-0.0424,-0.0558,-0.0575,-0.0679,-0.0677,-0.0716,-0.0744,-0.0596,-0.0676,-0.066,-0.0672,-0.0632,-0.0929,-0.082,-0.0804,-0.0814,-0.0822,-0.073,-0.0729,-0.0727,-0.0725,0,-0.0211,-0.0234,-0.024,-0.0257,-0.029,-0.0296,-0.0355,-0.0369,-0.0492,-0.0601,-0.0554,-0.0565,-0.0476,-0.0492,-0.0401,-0.0412,-0.0696,-0.0566,-0.0588,-0.0867,-0.0775,-0.0768,-0.0784,-0.0702,-0.0705,-0.0707,-0.0709,0,-0.0215,-0.0209,-0.0217,-0.0238,-0.0238,-0.0205,-0.0244,-0.0243,-0.0295,-0.0432,-0.0349,-0.0366,-0.0409,-0.0338,-0.0239,-0.0237,-0.0374,-0.047,-0.0501,-0.0527,-0.0526,-0.038,-0.0137,0,0,0,0,0,-0.0212,-0.0191,-0.019,-0.0177,-0.0163,-0.0159,-0.0175,-0.0207,-0.0288,-0.0251,-0.0338,-0.0254,-0.023,-0.0171,-0.0148,-0.0164,-0.0357,-0.0135,-0.0479,-0.0571,-0.0598,-0.0624,0,0,0,0,0,0,-0.0198,-0.019,-0.0176,-0.0114,-0.0086,-0.0051,-0.0051,-0.0105,-0.007,-0.0171,-0.0117,-0.0237,-0.0157,-0.0243,-0.014,-0.014,-0.0353,-0.0152,-0.0151,-0.0555,-0.058,-0.0602,-0.0638,0,0,0,0,0]},{"header":{"parameterUnit":"m.s-1","parameterCategory":2,"la1":30.2991,"la2":30.254,"lo1":-89.0895,"lo2":-89.0444,"dy":0.0017,"dx":0.0017,"nx":28,"ny":28,"refTime":"2023-06-26T21:00:00:Z","depth":"4","parameterNumber":3,"parameterNumberName":"V-component_of_CURRENTS"},"data":[0,0,0,0,0,0,0,0,0,0,0,0,0,0,0,0,0,0,0,0,0,0,0,0,0,0,0,0,0,0,0,0,0,0,0,0,0,0,0,0,0,0,0,0,0,0,0,0,0,0,0,0,0,0,0,0,0,0,-0.0352,-0.0352,0,-0.0406,-0.0407,-0.0407,-0.0396,-0.0395,-0.0394,-0.0393,-0.0432,-0.0434,-0.0435,0,0,0,0,0,0,0,0,0,0,0,0,0,-0.0264,-0.0266,-0.0351,-0.0352,-0.0353,-0.0406,-0.0407,-0.0407,-0.0396,-0.0395,-0.0394,-0.0393,-0.0431,-0.0433,-0.0436,0,0,0,0,0,0,0,0,0,0,0,0,0,-0.0308,-0.0266,-0.0351,-0.0355,-0.0356,-0.0406,-0.0407,-0.0408,-0.0396,-0.0395,-0.0394,-0.0392,-0.0431,-0.0433,-0.0436,-0.048,0,0,-0.0444,-0.0446,0,0,0,0,0,0,0,0,-0.0305,-0.0311,-0.0353,-0.0355,-0.0356,-0.0394,-0.039,-0.0431,-0.0397,-0.038,-0.0393,-0.0392,-0.0419,-0.0423,-0.0435,-0.0482,-0.0484,-0.0445,-0.0446,-0.0448,-0.0448,0,0,0,0,0,0,0,-0.0302,-0.0309,-0.0372,-0.0354,-0.0356,-0.0363,-0.0367,-0.0398,-0.0405,-0.0381,-0.0381,-0.0389,-0.042,-0.0432,-0.0436,-0.0484,-0.0445,-0.0447,-0.0449,-0.045,-0.0569,-0.057,0,0,0,0,0,0,-0.0298,-0.0306,-0.037,-0.0374,-0.0328,-0.0366,-0.037,-0.0382,-0.0405,-0.0408,-0.039,-0.0388,-0.0428,-0.0432,-0.0437,-0.049,-0.0448,-0.045,-0.0452,-0.0567,-0.0569,-0.0571,0,0,0,0,0,0,-0.0296,-0.0304,-0.0368,-0.0341,-0.035,-0.0368,-0.0382,-0.0384,-0.0414,-0.0413,-0.0414,-0.042,-0.0427,-0.0433,-0.0486,-0.0491,-0.0451,-0.0454,-0.0566,-0.0568,-0.057,-0.0597,0,0,0,0,0,0,-0.0294,-0.0303,-0.0316,-0.0341,-0.0352,-0.0405,-0.0383,-0.0386,-0.042,-0.0419,-0.0439,-0.0439,-0.0427,-0.0482,-0.0489,-0.0495,-0.0456,-0.0564,-0.0567,-0.0569,-0.0594,-0.06,-0.0605,0,0,0,0,0,-0.029,-0.0314,-0.0317,-0.0325,-0.0368,-0.0406,-0.0413,-0.042,-0.0424,-0.0441,-0.0463,-0.044,-0.0503,-0.0487,-0.0494,-0.05,-0.0562,-0.0566,-0.0569,-0.0592,-0.0599,-0.0605,0,0,0,0,0,0,-0.0285,-0.0316,-0.0319,-0.0351,-0.0379,-0.0405,-0.0426,-0.0441,-0.0475,-0.0484,-0.0477,-0.048,-0.0525,-0.0523,-0.0505,-0.0544,-0.0523,-0.0528,-0.0537,-0.0544,-0.0549,-0.053,-0.0459,0,0,0,0,0,-0.0291,-0.0318,-0.0345,-0.0375,-0.0388,-0.0415,-0.0436,-0.0453,-0.0483,-0.0497,-0.0518,-0.0534,-0.0545,-0.0553,-0.0575,-0.061,-0.0577,-0.0615,-0.062,-0.0624,-0.0615,-0.0574,-0.0573,-0.0582,-0.0582,-0.0582,0,0,-0.0301,-0.0321,-0.0338,-0.0376,-0.0397,-0.0429,-0.0425,-0.0474,-0.0497,-0.0499,-0.0552,-0.057,-0.0565,-0.0594,-0.0611,-0.0591,-0.061,-0.0628,-0.0632,-0.062,-0.0577,-0.0575,-0.0574,-0.0584,-0.0584,-0.0583,0,0,-0.0326,-0.0349,-0.0373,-0.0395,-0.0438,-0.0464,-0.0485,-0.0535,-0.0546,-0.0608,-0.0602,-0.0632,-0.067,-0.0653,-0.0647,-0.0701,-0.0649,-0.0706,-0.0704,-0.0665,-0.0662,-0.066,-0.0629,-0.0623,-0.0695,-0.0695,-0.0695,0,-0.0332,-0.0362,-0.0388,-0.0409,-0.0433,-0.0482,-0.0514,-0.0538,-0.0605,-0.0617,-0.063,-0.0683,-0.0688,-0.0685,-0.0692,-0.071,-0.0677,-0.0676,-0.0667,-0.0664,-0.0661,-0.063,-0.0623,-0.0696,-0.0696,-0.0696,-0.0696,0,-0.0361,-0.0388,-0.0407,-0.0448,-0.0484,-0.0527,-0.0562,-0.0605,-0.0645,-0.0668,-0.0708,-0.0726,-0.074,-0.0747,-0.0731,-0.0714,-0.0696,-0.0686,-0.0642,-0.0661,-0.0628,-0.0621,-0.0699,-0.0698,-0.0698,-0.0697,0,0,-0.0367,-0.0414,-0.0422,-0.0438,-0.0508,-0.0541,-0.0585,-0.0629,-0.065,-0.0711,-0.0732,-0.075,-0.0764,-0.0757,-0.0749,-0.0713,-0.0672,-0.0683,-0.068,-0.0636,-0.0581,-0.0572,-0.0563,-0.0648,-0.0647,-0.0646,-0.0569,0,-0.038,-0.0415,-0.0447,-0.0502,-0.0526,-0.0572,-0.0613,-0.0662,-0.0694,-0.0734,-0.0743,-0.0773,-0.0761,-0.0772,-0.0735,-0.0697,-0.0652,-0.0694,-0.0582,-0.0579,-0.0555,-0.0554,-0.0642,-0.0563,-0.0561,-0.056,-0.0559,0,-0.0398,-0.0417,-0.0462,-0.0518,-0.0534,-0.0592,-0.0653,-0.0693,-0.0739,-0.0757,-0.0777,-0.0786,-0.0768,-0.0758,-0.0671,-0.0693,-0.0632,-0.0596,-0.0591,-0.0564,-0.0557,-0.0539,-0.0545,-0.0546,-0.0547,-0.0548,-0.0549,0,-0.0387,-0.0433,-0.0471,-0.0487,-0.0561,-0.0602,-0.0663,-0.0719,-0.0742,-0.0779,-0.0794,-0.0781,-0.0779,-0.0709,-0.0642,-0.0641,-0.0545,-0.0535,-0.0469,-0.0468,-0.0484,-0.0487,-0.0453,-0.0453,-0.0453,-0.0453,-0.0453,0,-0.0389,-0.0418,-0.0475,-0.0494,-0.0556,-0.0618,-0.0687,-0.0725,-0.0782,-0.0799,-0.0814,-0.079,-0.0758,-0.0706,-0.0639,-0.0538,-0.0535,-0.0461,-0.0442,-0.0502,-0.0508,-0.0479,-0.0483,-0.045,-0.0451,-0.0451,-0.0452,0,-0.0386,-0.0415,-0.0454,-0.0525,-0.0559,-0.0615,-0.0716,-0.0746,-0.0798,-0.0815,-0.0826,-0.0795,-0.0712,-0.0681,-0.0571,-0.0527,-0.0444,-0.0404,-0.0483,-0.0472,-0.039,-0.0397,-0.031,-0.0309,-0.0308,-0.0308,-0.0307,0,-0.0389,-0.041,-0.0473,-0.0507,-0.0554,-0.0636,-0.0693,-0.0761,-0.0761,-0.0784,-0.0764,-0.0726,-0.0689,-0.0536,-0.0502,-0.041,-0.0389,-0.0359,-0.036,-0.0382,-0.0373,-0.0381,-0.0389,-0.0306,-0.0305,-0.0305,-0.0305,0,-0.0389,-0.0417,-0.0442,-0.0501,-0.0564,-0.0614,-0.0678,-0.0679,-0.0725,-0.0758,-0.0674,-0.0636,-0.0554,-0.0474,-0.0435,-0.0357,-0.0395,-0.0349,-0.035,-0.035,-0.0376,-0.0369,-0.0378,-0.0302,-0.0302,-0.0303,-0.0303,0,-0.0394,-0.0405,-0.0437,-0.0489,-0.0551,-0.0583,-0.0622,-0.0612,-0.0626,-0.0634,-0.0585,-0.0549,-0.0527,-0.0442,-0.0385,-0.0347,-0.0315,-0.0291,-0.0294,-0.0297,-0.0332,-0.0365,-0.026,0,0,0,0,0,-0.0394,-0.0396,-0.0429,-0.0473,-0.0529,-0.056,-0.0599,-0.0619,-0.0636,-0.0561,-0.058,-0.0498,-0.043,-0.0386,-0.0335,-0.0372,-0.0328,-0.0312,-0.0306,-0.0285,-0.0288,-0.0332,0,0,0,0,0,0,-0.0391,-0.0411,-0.0406,-0.0441,-0.0474,-0.0522,-0.0545,-0.0561,-0.0496,-0.0512,-0.0451,-0.0469,-0.0382,-0.045,-0.0325,-0.0319,-0.0304,-0.0291,-0.029,-0.0283,-0.0286,-0.0289,-0.0335,0,0,0,0,0]}]]